User: anonymous   Login
Location: Unspecified
(0.0000°N, 0.0000°E)
Time: 02:56:05
(UTC+00:00)
Language:

STARLINK-32491 - Orbit

View from above orbital plane
View from above orbital plane
View from above satellite
View from above satellite

Ground track
Ground track

The orbit is defined by the following mean orbital elements,

1 62043U          26145.48280441 +.00000000 +00000-0 +47805-3 0 00004
2 62043  42.9990 190.1163 0001461 275.8222  84.2463 15.27593089    07
Epoch (UTC): 25 May 2026 11:35:14
Eccentricity: 0.0001461
inclination: 42.9990°
perigee height: 482 km
apogee height: 484 km
right ascension of ascending node: 190.1163°
argument of perigee: 275.8222°
revolutions per day: 15.27593089
mean anomaly at epoch: 84.2463°

The dashed part of the orbit path shows where the satellite is in the earth's shadow,  

DLR